Temp
23 23 22 22 22 22 21 21 21 21 21 21 21 21 22 22 21 21 21 20 20 20 19 19 19 18 18 17 17 17 17 18 18 17 17 17 17 17 16 16 16 16 15
24 23 23 22 22 21 21 21 21 21 21 21 21 21 21 21 21 21 21 20 20 20 20 20 19 19 19 18 18 18 18 17 17 17 17 17 17 16 16 15 16 16 15
24 23 23 22 22 21 21 22 21 21 21 21 21 21 20 20 21 21 21 20 20 20 20 20 19 19 19 18 18 18 17 17 17 16 16 16 16 16 16 15 15 16 15
24 23 23 22 22 22 22 22 21 21 21 21 21 20 20 20 20 20 20 21 20 20 20 19 19 19 18 18 18 17 17 17 16 16 16 16 16 15 15 15 15 15 15
23 22 22 22 22 22 22 21 21 21 21 20 20 20 20 20 20 20 20 20 20 20 19 19 19 19 18 18 17 17 16 16 16 16 16 15 16 16 15 15 15 15 15
23 22 22 22 22 21 21 21 21 21 21 20 20 20 20 20 20 20 19 19 20 20 20 19 19 19 18 18 17 17 16 15 16 15 16 15 15 16 15 15 15 15 15
23 22 21 21 21 21 21 21 21 21 20 20 20 20 20 20 19 19 19 19 19 19 19 19 19 19 18 18 17 17 16 15 16 15 15 15 15 16 16 15 15 14 14
23 22 22 21 21 21 21 21 20 20 20 20 20 20 19 19 19 19 19 19 19 19 19 19 19 18 18 18 17 17 16 15 14 15 15 15 15 15 15 15 15 14 14
24 24 23 22 22 21 21 20 20 20 20 20 20 20 19 19 18 18 18 18 18 18 18 19 19 19 18 18 17 17 16 15 14 15 15 14 15 15 15 15 14 14 13
21 20 20 20 20 21 21 20 20 20 19 19 19 19 19 18 18 18 18 18 18 18 18 18 18 18 18 18 18 17 16 15 14 14 15 15 14 15 15 16 15 14 13
19 19 19 19 20 20 20 20 20 20 19 19 19 19 19 18 18 18 18 18 18 18 18 17 18 18 18 18 17 17 16 15 14 14 14 14 14 15 15 15 15 14 13
18 19 19 19 19 19 19 19 20 19 19 19 19 19 19 18 18 17 17 17 17 17 17 17 17 17 17 17 17 17 17 16 15 14 14 14 14 14 15 15 15 15 14
18 18 18 19 19 18 19 18 18 18 18 18 18 17 18 18 18 18 18 17 17 17 16 16 17 17 17 18 18 17 17 16 16 15 14 14 14 14 14 15 15 15 15
18 18 18 17 17 18 18 18 17 17 17 17 17 17 17 16 17 17 17 17 17 17 16 16 16 17 17 17 17 17 17 16 16 16 15 14 14 14 14 15 15 15 15
18 17 17 17 16 16 16 16 17 16 16 16 16 16 16 16 16 16 16 17 17 17 16 16 16 16 16 16 17 17 17 16 16 16 15 15 14 13 14 14 14 15 15
15 16 15 17 17 16 16 16 16 16 16 15 15 15 15 15 15 15 15 15 15 15 15 15 16 16 16 16 16 16 17 16 16 16 15 14 14 14 14 14 14 14 15
15 14 15 14 14 15 14 14 14 15 15 14 15 14 14 14 14 14 14 14 14 14 14 14 14 15 16 16 16 16 16 16 16 15 15 15 14 14 14 14 14 14 14
14 14 14 13 13 13 13 13 13 13 13 13 13 13 14 13 12 13 13 14 14 14 14 14 14 14 14 15 16 17 16 16 15 15 15 14 13 13 13 13 14 14 14
15 14 13 14 14 13 13 13 13 13 13 13 13 13 13 13 13 13 12 12 12 13 13 13 13 13 14 14 14 16 16 15 15 15 14 14 13 13 13 13 13 14 13
13 14 13 12 12 12 13 13 14 14 14 13 13 13 13 13 13 12 12 12 12 12 11 12 13 13 13 14 14 14 14 15 14 14 14 13 13 12 13 13 13 13 13
12 11 11 12 12 12 13 13 14 14 13 12 11 11 10 10 10 11 12 12 12 11 11 12 12 13 12 13 13 13 13 13 12 13 13 13 12 12 12 13 13 12 12
11 10 10 10 10 11 11 11 10 10 10 10 9 9 9 9 9 9 9 9 10 10 10 10 11 12 11 12 12 12 12 12 12 12 12 13 13 12 12 12 12 12 12
10 9 10 10 10 10 10 10 9 10 10 8 7 7 6 6 7 7 7 7 8 8 8 8 8 9 10 11 11 12 12 12 11 12 12 12 12 12 12 12 12 11 12
9 9 10 10 9 9 9 9 9 8 7 7 6 6 7 7 7 7 6 6 6 6 7 7 7 7 7 9 11 10 10 11 11 11 10 11 11 12 12 11 11 11 11
9 10 10 10 9 8 8 8 7 6 6 5 5 5 6 7 7 7 6 6 6 6 5 5 6 6 7 6 7 7 9 7 10 10 11 10 10 10 10 13 11 11 11
9 9 9 9 8 8 8 7 6 6 5 5 5 5 5 6 6 6 5 5 5 5 5 5 5 5 6 6 6 6 6 5 6 6 9 9 10 10 9 11 10 11 10
Height
1523 1525 1528 1530 1533 1534 1537 1539 1540 1542 1543 1544 1545 1546 1546 1548 1549 1550 1550 1551 1551 1552 1553 1554 1554 1555 1556 1556 1557 1557 1558 1557 1556 1556 1556 1557 1557 1558 1558 1558 1558 1560 1561
1522 1524 1528 1530 1533 1535 1537 1538 1540 1543 1545 1546 1548 1547 1548 1549 1550 1550 1551 1552 1552 1553 1553 1554 1555 1556 1557 1557 1558 1558 1558 1558 1558 1559 1560 1559 1560 1559 1559 1560 1559 1561 1562
1522 1524 1527 1530 1532 1534 1537 1538 1540 1542 1544 1547 1548 1549 1549 1549 1550 1551 1552 1552 1553 1553 1554 1555 1556 1557 1558 1558 1559 1559 1559 1559 1559 1560 1561 1562 1561 1561 1560 1562 1562 1561 1563
1523 1525 1527 1529 1531 1534 1535 1538 1539 1542 1544 1546 1547 1548 1549 1549 1550 1551 1552 1552 1553 1554 1554 1555 1556 1557 1558 1559 1560 1560 1559 1559 1559 1561 1561 1562 1563 1562 1562 1562 1564 1564 1563
1524 1526 1527 1530 1532 1533 1535 1537 1539 1540 1542 1544 1545 1546 1547 1548 1550 1551 1552 1552 1553 1554 1554 1555 1556 1557 1558 1559 1560 1560 1561 1560 1559 1561 1561 1561 1562 1563 1562 1562 1563 1564 1564
1525 1527 1528 1530 1532 1534 1536 1538 1539 1540 1541 1543 1544 1545 1546 1547 1549 1550 1551 1551 1552 1552 1552 1553 1554 1555 1556 1558 1559 1559 1560 1559 1558 1559 1560 1561 1563 1563 1563 1563 1564 1564 1564
1525 1528 1530 1531 1533 1534 1536 1538 1539 1540 1541 1543 1543 1544 1545 1546 1548 1549 1550 1550 1550 1551 1551 1552 1552 1553 1555 1557 1558 1559 1559 1559 1559 1559 1560 1561 1562 1562 1562 1563 1564 1564 1565
1525 1527 1529 1531 1532 1534 1536 1538 1539 1540 1540 1541 1542 1543 1545 1546 1547 1548 1549 1549 1550 1551 1551 1552 1552 1553 1555 1556 1557 1558 1558 1558 1558 1559 1560 1561 1562 1562 1562 1562 1563 1564 1565
1525 1527 1529 1530 1532 1534 1535 1536 1537 1538 1539 1539 1540 1541 1542 1544 1546 1547 1548 1549 1549 1550 1551 1551 1551 1552 1553 1554 1555 1555 1556 1556 1556 1558 1558 1560 1561 1561 1560 1561 1562 1563 1564
1526 1528 1530 1531 1532 1533 1534 1535 1535 1536 1537 1538 1538 1539 1541 1542 1543 1544 1546 1547 1548 1548 1548 1549 1550 1550 1551 1552 1553 1553 1554 1554 1554 1555 1557 1558 1559 1560 1560 1559 1560 1562 1563
1526 1527 1529 1530 1530 1530 1531 1532 1533 1534 1535 1536 1537 1537 1538 1539 1540 1541 1542 1544 1544 1545 1546 1546 1548 1549 1549 1550 1550 1551 1552 1553 1553 1553 1556 1557 1559 1560 1560 1559 1559 1560 1561
1523 1524 1525 1527 1529 1529 1530 1530 1531 1532 1533 1535 1535 1535 1536 1536 1537 1539 1540 1540 1541 1542 1542 1543 1544 1545 1545 1546 1547 1547 1548 1550 1551 1552 1552 1554 1556 1558 1559 1559 1559 1559 1560
1522 1522 1523 1523 1525 1525 1526 1528 1529 1528 1530 1533 1533 1532 1533 1533 1534 1535 1535 1536 1536 1537 1537 1537 1538 1539 1540 1540 1542 1543 1545 1546 1547 1548 1548 1550 1552 1553 1555 1556 1558 1559 1559
1522 1521 1522 1523 1524 1524 1524 1524 1525 1527 1529 1531 1531 1530 1530 1529 1529 1530 1530 1531 1532 1532 1532 1533 1533 1534 1534 1535 1536 1538 1540 1541 1543 1544 1544 1545 1546 1548 1551 1552 1553 1555 1557
1522 1521 1522 1523 1523 1523 1523 1524 1526 1526 1527 1528 1528 1526 1526 1526 1526 1526 1526 1527 1527 1528 1527 1527 1528 1529 1528 1528 1529 1531 1533 1535 1537 1538 1540 1540 1541 1544 1545 1547 1550 1550 1552
1523 1523 1523 1524 1524 1523 1523 1523 1522 1522 1523 1523 1522 1521 1521 1522 1521 1522 1521 1521 1521 1520 1520 1520 1521 1521 1522 1522 1521 1523 1524 1528 1529 1530 1532 1535 1536 1538 1539 1543 1544 1547 1547
1522 1522 1522 1521 1521 1520 1519 1519 1518 1517 1518 1518 1519 1519 1519 1519 1518 1517 1517 1515 1516 1515 1514 1513 1514 1513 1512 1511 1512 1515 1517 1518 1518 1522 1524 1526 1530 1532 1534 1535 1540 1541 1544
1522 1523 1521 1521 1520 1519 1518 1517 1517 1517 1517 1517 1516 1516 1515 1514 1513 1512 1510 1511 1510 1510 1508 1507 1507 1506 1505 1505 1504 1506 1506 1508 1509 1513 1516 1519 1522 1526 1528 1528 1530 1534 1536
1519 1521 1520 1519 1519 1520 1519 1519 1518 1518 1517 1516 1515 1514 1513 1512 1510 1507 1505 1504 1502 1501 1502 1501 1499 1498 1497 1498 1498 1499 1499 1498 1497 1503 1506 1509 1513 1515 1518 1522 1525 1526 1530
1518 1516 1516 1516 1516 1517 1517 1517 1517 1516 1514 1513 1512 1511 1509 1508 1505 1503 1502 1500 1498 1495 1494 1493 1491 1489 1486 1486 1489 1488 1489 1489 1489 1490 1493 1498 1502 1507 1510 1512 1516 1519 1521
1515 1518 1516 1514 1514 1515 1515 1514 1513 1511 1510 1509 1509 1507 1505 1503 1501 1498 1496 1493 1492 1489 1488 1488 1485 1481 1479 1478 1478 1475 1476 1475 1477 1477 1481 1482 1484 1492 1496 1500 1505 1510 1512
1515 1515 1516 1515 1514 1514 1513 1512 1510 1507 1506 1505 1503 1501 1499 1497 1495 1492 1490 1488 1486 1483 1480 1480 1478 1474 1472 1472 1468 1467 1464 1463 1461 1466 1468 1469 1472 1478 1486 1491 1494 1499 1503
1515 1515 1513 1512 1514 1514 1512 1509 1505 1503 1500 1498 1496 1494 1491 1489 1487 1485 1484 1481 1478 1476 1473 1473 1472 1469 1463 1462 1458 1456 1449 1442 1449 1455 1455 1456 1459 1462 1473 1477 1484 1490 1494
1516 1515 1513 1511 1512 1510 1508 1504 1502 1500 1496 1494 1492 1490 1486 1484 1481 1478 1476 1473 1471 1469 1465 1464 1464 1462 1459 1453 1448 1452 1444 1441 1425 1435 1445 1442 1441 1447 1455 1461 1465 1476 1485
1511 1513 1511 1512 1510 1506 1503 1502 1500 1498 1496 1491 1489 1484 1480 1477 1475 1472 1470 1467 1465 1463 1460 1457 1455 1453 1452 1450 1447 1442 1437 1430 1420 1425 1413 1436 1429 1435 1439 1443 1451 1462 1470
1509 1508 1509 1508 1504 1502 1502 1501 1499 1496 1492 1487 1482 1475 1470 1467 1464 1464 1463 1461 1458 1455 1453 1451 1449 1447 1445 1442 1440 1437 1432 1433 1428 1426 1421 1421 1422 1430 1431 1433 1442 1450 1459
Wind_Speed
8 14 20 21 21 20 19 18 18 17 16 16 15 16 15 14 13 11 10 10 10 10 10 9 8 7 6 5 3 3 1 2 4 4 4 6 8 10 11 11 11 11 10
6 16 19 19 21 21 19 18 17 15 14 13 13 13 13 13 12 11 11 10 10 10 8 8 7 6 6 5 5 4 3 4 5 5 6 8 8 9 10 9 10 10 10
7 16 19 20 21 22 19 17 16 15 14 12 11 11 11 11 10 10 10 9 9 8 8 8 7 6 6 6 7 6 6 7 8 8 7 6 8 7 9 7 8 9 9
10 17 20 21 21 21 21 18 17 16 14 13 12 11 10 10 9 8 8 8 8 8 8 8 7 6 6 7 9 8 9 10 10 10 9 7 4 7 6 7 6 8 9
16 17 18 19 19 21 20 20 19 17 15 13 13 13 13 12 10 9 7 7 7 7 7 7 7 6 6 8 10 11 11 9 8 9 9 6 4 5 6 7 7 7 8
16 16 16 18 18 19 19 19 18 17 15 14 13 13 14 14 12 11 9 8 7 7 6 6 7 7 7 9 12 13 14 10 6 3 7 6 2 3 4 6 7 8 8
13 12 13 15 15 17 17 17 17 16 15 14 13 14 15 15 15 13 12 10 9 8 7 6 7 8 8 9 13 15 15 12 10 7 5 3 4 4 4 6 7 8 8
5 7 8 10 12 14 15 16 16 16 15 14 14 14 15 16 16 16 15 13 11 10 8 8 8 9 8 9 13 16 18 15 11 11 8 5 8 8 8 7 8 7 8
2 3 3 5 7 12 14 15 16 16 16 16 15 15 15 16 17 18 17 17 15 14 11 11 11 11 11 11 13 17 20 19 16 13 12 10 11 9 10 10 9 9 9
5 3 3 4 5 10 13 14 15 16 16 16 16 15 16 17 19 20 20 20 19 18 17 17 15 15 15 14 15 18 22 23 19 15 17 14 12 11 10 12 12 11 11
5 2 1 3 3 3 8 11 12 14 16 17 18 17 18 19 20 21 22 23 23 23 22 21 20 19 18 18 17 19 22 26 23 20 17 17 14 13 12 9 11 12 13
10 8 7 5 2 1 1 2 6 11 15 16 17 18 19 20 21 21 23 24 25 26 26 26 25 24 23 23 22 21 25 27 29 25 22 20 18 16 14 12 10 13 14
11 8 7 11 10 9 8 5 5 2 5 8 8 10 18 22 22 23 25 27 28 30 31 31 30 30 30 29 27 26 26 27 30 31 28 23 22 20 18 17 15 12 15
12 9 6 5 9 11 12 13 10 8 9 9 10 13 13 14 21 25 27 28 30 32 35 35 35 35 35 34 32 30 29 29 30 33 34 28 25 24 25 21 19 17 14
7 6 5 3 7 8 9 12 14 12 11 10 11 12 16 18 17 17 21 24 28 33 36 37 38 39 40 39 37 36 34 33 31 34 37 34 29 26 27 24 23 21 17
9 7 5 1 2 4 5 5 9 14 13 13 12 13 15 17 21 23 24 27 31 33 35 36 38 40 42 43 43 41 39 37 35 36 38 40 35 30 31 29 26 24 21
8 8 7 8 7 4 1 3 4 7 6 6 9 13 15 17 20 23 26 26 29 32 36 38 39 43 42 45 45 43 43 42 43 39 39 42 39 34 34 33 29 28 25
5 5 6 8 9 10 10 9 4 7 7 8 9 9 12 15 19 21 22 27 28 31 31 35 39 44 46 47 47 44 43 45 46 43 40 43 43 39 38 37 35 33 29
1 2 5 6 7 8 10 10 11 10 10 11 11 12 15 16 18 20 21 22 24 27 31 32 35 39 44 48 51 48 46 49 50 45 43 44 47 45 44 42 39 36 33
3 3 4 7 7 10 9 7 7 9 10 12 13 14 16 18 20 23 23 23 24 25 25 26 32 36 41 44 46 54 54 53 52 50 48 45 48 47 46 45 44 41 37
6 5 9 8 12 12 13 17 18 21 23 23 23 23 24 25 26 27 30 30 29 27 27 26 30 32 40 43 47 49 53 56 54 55 52 50 51 53 52 50 47 45 39
5 6 10 11 12 14 16 20 25 28 30 32 33 33 32 32 31 31 30 29 30 32 29 27 26 32 29 36 44 42 30 41 53 56 56 55 57 54 56 52 52 49 44
6 8 9 13 17 17 19 25 31 35 38 37 34 33 34 34 33 29 25 24 25 30 31 30 31 31 34 39 28 42 22 29 35 51 59 60 59 57 61 58 56 53 46
5 6 10 15 17 20 24 30 35 32 32 33 35 39 40 37 36 35 27 23 24 21 27 28 29 29 29 34 36 40 31 29 21 19 48 53 57 60 66 66 61 56 47
2 5 13 18 21 24 27 29 31 31 33 36 40 46 44 42 39 36 33 31 27 26 24 25 28 27 26 30 30 37 31 25 27 26 33 46 46 53 67 66 58 48 49
3 9 14 18 21 26 27 28 31 31 34 39 46 50 50 47 44 40 31 30 28 27 26 28 28 24 25 25 28 28 33 37 37 36 25 35 47 48 51 54 48 48 60
Wind_Direction
128 154 163 161 162 156 153 146 142 140 134 133 130 125 122 123 127 134 137 135 135 138 137 133 124 122 125 124 107 83 55 53 80 104 119 138 138 129 119 113 117 119 116
145 152 164 165 169 163 159 155 150 149 148 143 143 135 129 127 129 133 137 140 142 145 143 137 133 130 129 127 115 113 112 103 106 120 146 149 139 121 115 114 121 121 121
154 160 165 171 172 168 167 162 158 157 160 166 160 154 145 142 139 136 138 142 145 149 152 147 143 138 135 133 135 141 136 131 130 135 134 144 138 126 120 108 128 127 125
172 167 164 167 170 173 171 171 169 169 170 176 180 177 172 167 162 158 152 148 153 160 162 158 155 153 147 145 148 150 153 149 141 136 120 139 149 142 136 126 138 135 134
159 164 162 165 171 176 177 178 179 179 181 186 189 191 193 193 187 183 176 170 167 172 174 170 168 169 162 155 159 158 165 166 156 152 132 109 183 178 165 155 154 151 145
146 158 162 167 172 179 181 184 185 189 190 194 197 200 206 207 206 205 202 195 193 190 192 190 188 187 178 168 164 168 172 180 215 193 154 114 76 204 186 171 166 160 158
122 146 170 173 176 181 187 190 193 197 201 204 207 209 212 214 217 219 220 218 217 214 212 213 212 208 195 181 171 180 180 189 205 206 190 193 252 258 227 189 180 166 168
123 133 153 177 188 193 195 197 201 203 207 212 215 219 222 222 225 227 230 232 236 240 241 237 232 231 221 200 183 189 187 195 209 233 217 233 269 279 254 217 190 187 183
192 196 175 183 202 206 205 207 209 211 214 218 221 223 225 225 230 234 238 241 242 245 250 252 245 242 236 221 199 195 190 201 222 221 216 224 264 284 253 227 208 202 195
186 205 221 222 232 226 222 218 218 220 222 224 225 228 228 227 229 233 239 243 245 247 248 252 252 248 245 234 217 206 199 206 217 215 220 233 250 272 278 239 220 213 207
163 195 277 320 313 257 234 241 243 240 237 235 233 232 231 230 231 233 238 243 247 249 249 251 254 253 250 245 232 217 208 208 210 227 231 234 240 263 272 260 229 218 216
170 210 221 221 206 275 317 268 266 261 259 258 256 253 247 242 239 238 242 246 249 251 251 252 252 253 250 248 242 228 220 213 214 223 236 234 235 252 258 257 255 233 225
157 188 222 238 229 237 255 245 243 294 303 298 293 289 273 262 255 251 249 248 249 250 250 249 250 249 251 250 249 241 232 222 219 221 231 236 233 238 249 253 258 257 243
140 134 155 196 235 230 248 260 277 298 300 297 302 310 306 288 268 261 260 259 258 257 256 254 254 254 253 253 251 249 242 232 226 221 228 230 232 237 247 250 251 260 265
141 135 154 170 219 214 227 236 240 245 260 266 285 283 288 286 285 281 278 274 269 265 261 260 258 257 257 254 252 249 247 241 231 226 226 229 233 233 241 243 247 254 263
98 84 70 99 270 272 240 237 227 233 234 247 252 268 267 275 279 276 274 274 276 273 269 265 262 260 259 257 255 252 248 247 239 232 227 228 232 230 238 244 244 249 254
80 70 58 57 64 88 107 134 186 223 235 261 253 277 283 278 274 275 270 271 271 275 275 274 267 266 261 257 254 252 250 245 244 235 230 228 230 229 234 239 244 244 247
35 27 54 58 56 49 48 45 18 356 345 338 325 335 302 302 289 287 290 279 275 267 273 275 270 269 267 267 260 253 250 247 244 238 233 230 227 227 229 236 238 242 243
184 22 47 47 42 42 38 31 28 25 13 1 341 323 312 310 305 299 298 297 295 287 277 274 275 270 270 267 267 263 252 246 247 239 234 230 228 228 228 234 233 234 237
100 103 58 33 27 26 17 10 354 350 344 339 331 321 312 309 307 308 307 302 300 301 299 287 279 277 270 266 265 262 263 250 247 241 235 230 229 228 229 230 231 229 233
90 69 59 39 17 359 352 354 348 342 334 329 326 323 317 313 309 303 299 299 301 301 303 301 284 287 275 270 261 255 257 257 251 240 236 231 227 228 229 227 226 224 227
89 59 44 29 6 355 355 351 341 333 330 325 322 319 319 317 315 310 309 301 293 297 295 296 290 284 290 265 245 239 240 230 236 237 233 231 230 227 229 226 225 223 222
92 52 24 6 350 347 342 333 330 328 325 327 330 331 332 329 326 321 320 304 295 287 292 298 302 294 293 278 266 238 232 228 233 232 228 233 232 224 230 221 224 221 220
79 12 349 351 342 339 335 329 332 339 333 328 327 325 322 320 320 322 315 313 293 304 294 294 295 299 297 291 281 273 287 249 204 210 216 212 219 227 230 219 223 217 220
116 331 337 330 329 335 330 333 339 335 331 324 319 317 314 314 310 314 311 310 297 292 304 309 289 285 292 292 289 291 281 328 276 233 206 220 206 211 215 228 211 215 225
326 316 318 323 331 326 330 332 331 323 318 318 319 317 315 310 306 309 312 312 307 291 297 300 297 301 298 288 292 287 294 295 294 304 272 224 218 211 208 213 213 228 228